Location: Larch Mountain
(45.5297°N, 122.0872°W)
Time: 21:25:10
(UTC-07:00)

ISS - All Passes

Search period start: 22 October 2017 00:00
Search period end: 01 November 2017 00:00
Orbit: 401 x 408 km, 51.6° (Epoch: 23 October)

Date Brightness Start Highest point End Pass type
(mag) Time Alt. Az. Time Alt. Az. Time Alt. Az.
22 Oct - 09:21:33 10° S 09:23:54 18° SE 09:26:15 10° E daylight
22 Oct - 10:56:49 10° WSW 11:00:03 72° NNW 11:03:20 10° ENE daylight
22 Oct - 12:34:01 10° WNW 12:36:54 28° N 12:39:48 10° NE daylight
22 Oct - 14:10:57 10° NW 14:13:58 33° NNE 14:16:58 10° E daylight
22 Oct - 15:47:22 10° WNW 15:50:38 68° SSW 15:53:52 10° SE daylight
22 Oct - 17:26:05 10° WSW 17:26:32 10° SW 17:27:00 10° SW daylight
23 Oct - 08:31:15 10° SE 08:31:49 10° SE 08:32:24 10° ESE daylight
23 Oct - 10:04:31 10° SW 10:07:44 69° SSE 10:10:59 10° ENE daylight
23 Oct - 11:41:26 10° W 11:44:25 33° NNW 11:47:25 10° NE daylight
23 Oct - 13:18:35 10° NW 13:21:28 28° N 13:24:22 10° ENE daylight
23 Oct - 14:55:02 10° WNW 14:58:18 73° NNE 15:01:35 10° ESE daylight
23 Oct - 16:32:08 10° W 16:34:28 18° SW 16:36:48 10° S daylight
24 Oct - 09:12:26 10° SSW 09:15:28 39° SE 09:18:33 10° ENE daylight
24 Oct - 10:48:50 10° W 10:51:57 42° NNW 10:55:05 10° NE daylight
24 Oct - 12:26:06 10° WNW 12:28:57 26° N 12:31:47 10° ENE daylight
24 Oct - 14:02:44 10° NW 14:05:55 48° NNE 14:09:05 10° E daylight
24 Oct - 15:39:21 10° WNW 15:42:18 31° SW 15:45:14 10° SSE daylight
25 Oct - 08:20:40 10° S 08:23:17 22° SE 08:25:53 10° E daylight
25 Oct - 09:56:18 10° WSW 09:59:31 61° NNW 10:02:46 10° ENE daylight
25 Oct - 11:33:33 10° WNW 11:36:24 27° N 11:39:16 10° NE daylight
25 Oct - 13:10:24 10° NW 13:13:27 35° NNE 13:16:30 10° E daylight
25 Oct - 14:46:50 10° WNW 14:50:03 56° SW 14:53:15 10° SE daylight
26 Oct - 07:29:36 10° SSE 07:31:08 13° SE 07:32:40 10° ESE daylight
26 Oct - 09:03:53 10° WSW 09:07:08 83° SSE 09:10:24 10° ENE daylight
26 Oct - 10:40:55 10° WNW 10:43:52 31° N 10:46:50 10° NE daylight
26 Oct - 12:18:00 10° NW 12:20:56 29° N 12:23:51 10° ENE daylight
26 Oct - 13:54:26 10° WNW 13:57:43 86° NNE 14:00:58 10° ESE daylight
26 Oct - 15:31:49 10° W 15:33:47 15° SW 15:35:45 10° S daylight
27 Oct - 08:11:40 10° SW 08:14:49 47° SE 08:17:58 10° ENE daylight
27 Oct - 09:48:16 10° W 09:51:21 38° NNW 09:54:27 10° NE daylight
27 Oct - 11:25:32 10° WNW 11:28:22 27° N 11:31:14 10° ENE daylight
27 Oct - 13:02:04 10° WNW 13:05:18 55° NNE 13:08:31 10° ESE daylight
27 Oct - 14:38:49 10° W 14:41:36 26° SW 14:44:23 10° SSE daylight
28 Oct - 07:19:45 10° SSW 07:22:33 27° SE 07:25:21 10° E daylight
28 Oct - 08:55:40 10° WSW 08:58:52 53° NNW 09:02:05 10° NE daylight
28 Oct - 10:32:57 10° WNW 10:35:48 27° N 10:38:38 10° ENE daylight
28 Oct - 12:09:42 10° NW 12:12:49 39° NNE 12:15:55 10° E daylight
28 Oct - 13:46:11 10° WNW 13:49:20 46° SW 13:52:28 10° SE daylight
29 Oct - 06:28:19 10° S 06:30:21 16° SE 06:32:22 10° E visible
29 Oct - 08:03:10 10° WSW 08:06:26 83° NNW 08:09:42 10° ENE daylight
29 Oct - 09:40:18 10° WNW 09:43:13 29° N 09:46:08 10° NE daylight
29 Oct - 11:17:18 10° NW 11:20:16 31° NNE 11:23:14 10° ENE daylight
29 Oct - 12:53:43 10° WNW 12:56:59 81° SSW 13:00:15 10° ESE daylight
29 Oct - 14:31:32 10° WSW 14:32:58 12° SW 14:34:25 10° SSW daylight
30 Oct - 07:10:50 10° SW 07:14:02 58° SSE 07:17:15 10° ENE visible
30 Oct - 08:47:36 10° W 08:50:39 35° NNW 08:53:41 10° NE daylight
30 Oct - 10:24:49 10° NW 10:27:41 27° N 10:30:33 10° ENE daylight
30 Oct - 12:01:19 10° WNW 12:04:33 63° NNE 12:07:48 10° ESE daylight
30 Oct - 13:38:12 10° W 13:40:47 22° SW 13:43:22 10° S daylight
31 Oct - 06:18:46 10° SSW 06:21:43 32° SE 06:24:40 10° ENE visible
31 Oct - 07:54:57 10° W 07:58:06 47° NNW 08:01:17 10° NE daylight
31 Oct - 09:32:14 10° WNW 09:35:04 26° N 09:37:54 10° ENE daylight
31 Oct - 11:08:55 10° NW 11:12:03 43° NNE 11:15:11 10° E daylight
31 Oct - 12:45:27 10° WNW 12:48:30 37° SW 12:51:33 10° SSE daylight
